Regional Weather Roundup
Issued by NWS Sterling, VA

Home | Current Version | Previous Version | Text Only | Print | Product List | Glossary On
Versions: 1 2 3 4 5 6 7 8 9 10 11 12 13 14 15 16 17 18 19 20 21 22 23 24 25 26 27 28 29 30 31 32 33 34 35 36 37 38 39 40 41 42 43 44 45 46 47 48 49 50
000
ASUS41 KLWX 251510
RWRLWX

REGIONAL WEATHER ROUNDUP
NATIONAL WEATHER SERVICE BALTIMORE MD/WASHINGTON DC
1100 AM EDT THU AUG 25 2016

Note: "FAIR" indicates few or no clouds below 12,000 feet
with no significant weather and/or obstructions to visibility.
 TC=TEMPERATURE CELSIUS

 * =Non NWS site. Station does not report precipitation (e.g. rain,
    snow, etc.), thunder, or fog.

DCZ001-MDZ009-015-VAZ040>042-051-053>054-251600-
WASHINGTON METRO

CITY           SKY/WX    TMP DP  RH WIND       PRES   REMARKS
WASHINGTON NAT CLOUDY    82  69  64 S10       30.10F
DULLES         PTSUNNY   80  68  66 S10       30.10F
ANDREWS AFB    FAIR      81  68  65 S10       30.11S
FT BELVOIR     FAIR      79  69  69 SE8       30.10F
QUANTICO       PTSUNNY   81  69  67 S9        30.11S
LEESBURG*      CLOUDY    81  72  74 CALM      30.11S
MANASSAS*      SUNNY     81  70  69 S7        30.10F
GAITHERSBURG*  FAIR      79  66  65 S6        30.14S

$$

MDZ006>007-011-014-251600-
BALTIMORE METRO

CITY           SKY/WX    TMP DP  RH WIND       PRES   REMARKS
BWI AIRPORT    PTSUNNY   81  68  64 SW9       30.09F
MD SCIENCE CTR   N/A     82  67  60 MISG      30.09F
ANNAPOLIS      FAIR      81  68  64 S9        30.09F
FORT MEADE*    FAIR     N/A N/A N/A SW6       30.12S

$$

MDZ012-015-019>023-251600-
MARYLAND EASTERN SHORE

CITY           SKY/WX    TMP DP  RH WIND       PRES   REMARKS
OCEAN CITY     FAIR      82  70  66 S8        30.15S
SALISBURY      FAIR      82  69  64 SW12      30.14F
EASTON*        MOSUNNY   82  72  69 SW14      30.16S

$$

MDZ017>025-251600-
SOUTHERN MARYLAND

CITY           SKY/WX    TMP DP  RH WIND       PRES   REMARKS
PATUXENT RIVER PTSUNNY   82  66  58 SW10G18   30.12F
ST INIGOES     FAIR      82  69  64 S12       30.13S
LEONARDTOWN*   NOT AVBL

$$

MDZ003>005-251600-
NORTH CENTRAL MARYLAND

CITY           SKY/WX    TMP DP  RH WIND       PRES   REMARKS
FREDERICK*     NOT AVBL
HAGERSTOWN APT FAIR      80  69  69 W8        30.10R

$$

MDZ501>502-251600-
WESTERN MARYLAND

CITY           SKY/WX    TMP DP  RH WIND       PRES   REMARKS
OAKLAND*       NOT AVBL
CUMBERLAND*    FAIR      77  70  78 CALM      30.14S

$$

VAZ025>031-251600-
SHENANDOAH VALLEY

CITY           SKY/WX    TMP DP  RH WIND       PRES   REMARKS
WINCHESTER*    FAIR      79  70  73 SW6       30.11S
FRONT ROYAL*   FAIR      81  72  74 SW8       30.10S
LURAY*         FAIR      81  72  74 SW8       30.12F
NEW MARKET*    FAIR     N/A N/A N/A W6        30.11F
STAUNTON*      FAIR      82  69  64 SW8       30.16F
WAYNESBORO*    FAIR      79  69  71 SW9       30.17S

$$

WVZ021-048>050-054>055-251600-
EASTERN WEST VIRGINIA PANHANDLE

CITY           SKY/WX    TMP DP  RH WIND       PRES   REMARKS
MARTINSBURG    FAIR      80  70  71 S6        30.09R
PETERSBURG*    LGT RAIN  74  71  90 CALM      30.13R

$$

VAZ036>039-050-251600-
CENTRAL FOOTHILLS

CITY           SKY/WX    TMP DP  RH WIND       PRES   REMARKS
CHARLOTTESVILL FAIR      81  70  69 S6        30.12F
CULPEPER*      FAIR      80  71  74 SW5       30.11F
ORANGE*          N/A     82  72  69 CALM      30.13S
GORDONSVILLE*  PTSUNNY   81  72  74 SW6       30.11F
WARRENTON*     FAIR      80  66  62 SW3       30.10F

$$

VAZ055>057-251600-
NORTH AND CENTRAL PIEDMONT

CITY           SKY/WX    TMP DP  RH WIND       PRES   REMARKS
FREDERICKSBRG* FAIR      82  70  68 S6        30.10F
STAFFORD*      FAIR      81  67  63 S5        30.15S

$$

NCZ024-NYZ072-PAZ021-071-VAZ022-071-251600-
OTHER REGIONAL OBSERVATIONS

CITY           SKY/WX    TMP DP  RH WIND       PRES   REMARKS
NEW YORK CITY    N/A     79  64  61 MISG        N/A
PHILADELPHIA   PTSUNNY   82  66  58 SW15      30.10F
PITTSBURGH     CLOUDY    77  69  76 SW9       30.09S
ROANOKE        FAIR      83  70  64 W7        30.19S
RICHMOND       PTSUNNY   82  63  52 SW13      30.14F
RALEIGH        FAIR      83  63  50 SW8       30.19S

$$

ANZ530>537-251600-
MARINE OBSERVATIONS

STATION/POSITION TIME  TEMP    WIND        PRES
                       AIR SEA DIR/SP/G
                 (UTC) (F)     (DEG/KT/KT) (MB)
THOMAS PT LIGHT  NOT AVBL

$$




USA.gov is the U.S. government's official web portal to all federal, state and local government web resources and services.